GW1821 Weather Reports


Display with metric or nautical units.
time (UTC)temp
F
wind
direction
speed
MPH
gust
MPH
rain 1hr
in
rain 24hr
in
rain mn
in
humidity
%
barometer
mb
20260901230637 85 257 2.0 7.0 0.00 0.00 0.00 47 1010.6
20260901230132 85 222 1.0 8.0 0.00 0.00 0.00 46 1010.7
20260901225614 85 269 2.0 8.0 0.00 0.00 0.00 47 1010.7
20260901225605 85 291 2.0 6.0 0.00 0.00 0.00 46 1010.7
20260901224609 85 244 1.0 4.0 0.00 0.00 0.00 47 1010.7
20260901224111 85 298 1.0 4.0 0.00 0.00 0.00 47 1010.6
20260901223108 85 275 2.0 7.0 0.00 0.00 0.00 46 1010.6
20260901222608 85 263 2.0 6.0 0.00 0.00 0.00 44 1010.6
20260901222111 85 244 2.0 7.0 0.00 0.00 0.00 45 1010.5
20260901221608 85 244 2.0 7.0 0.00 0.00 0.00 46 1010.5
20260901221103 85 263 3.0 10.0 0.00 0.00 0.00 45 1010.5
20260901220603 85 86 3.0 10.0 0.00 0.00 0.00 45 1010.5
20260901220059 86 254 3.0 9.0 0.00 0.00 0.00 45 1010.5
20260901215559 86 282 2.0 6.0 0.00 0.00 0.00 43 1010.6
20260901215320 86 221 2.0 8.0 0.00 0.00 0.00 43 1010.5
20260901214809 86 246 2.0 8.0 0.00 0.00 0.00 43 1010.4
20260901214050 86 214 2.0 8.0 0.00 0.00 0.00 43 1010.4
20260901213547 86 257 2.0 8.0 0.00 0.00 0.00 42 1010.3
20260901213038 87 263 1.0 4.0 0.00 0.00 0.00 44 1010.2
20260901212539 87 231 2.0 7.0 0.00 0.00 0.00 43 1010.2
20260901212031 87 255 2.0 7.0 0.00 0.00 0.00 42 1010.3
20260901211526 87 212 2.0 7.0 0.00 0.00 0.00 40 1010.2
20260901211024 87 237 2.0 7.0 0.00 0.00 0.00 40 1010.2
20260901210524 87 253 2.0 8.0 0.00 0.00 0.00 38 1010.2
20260901210023 87 269 1.0 8.0 0.00 0.00 0.00 38 1010.4
20260901205522 88 236 2.0 8.0 0.00 0.00 0.00 38 1010.3
20260901205020 88 319 2.0 8.0 0.00 0.00 0.00 39 1010.3
20260901204521 88 248 2.0 7.0 0.00 0.00 0.00 39 1010.6
20260901204019 89 249 3.0 10.0 0.00 0.00 0.00 36 1010.7
20260901203520 89 131 3.0 10.0 0.00 0.00 0.00 36 1010.7
20260901203012 89 340 1.0 4.0 0.00 0.00 0.00 38 1010.7
20260901202516 90 223 2.0 7.0 0.00 0.00 0.00 36 1010.7
20260901202012 90 326 2.0 8.0 0.00 0.00 0.00 36 1010.8
20260901201512 89 242 2.0 8.0 0.00 0.00 0.00 36 1010.8
20260901201013 90 190 2.0 8.0 0.00 0.00 0.00 40 1010.8
20260901200514 90 16 2.0 8.0 0.00 0.00 0.00 38 1010.8
20260901200009 89 346 2.0 6.0 0.00 0.00 0.00 41 1010.7
20260901195955 89 247 1.0 5.0 0.00 0.00 0.00 39 1010.8
20260901195000 89 324 1.0 5.0 0.00 0.00 0.00 44 1010.9
20260901194459 89 253 3.0 7.0 0.00 0.00 0.00 40 1011.0
20260901193954 89 248 2.0 8.0 0.00 0.00 0.00 41 1011.0
20260901193447 89 271 1.0 8.0 0.00 0.00 0.00 44 1011.0
20260901192944 89 0 1.0 5.0 0.00 0.00 0.00 41 1011.0
20260901192444 89 344 1.0 8.0 0.00 0.00 0.00 42 1011.0
20260901191938 89 338 1.0 8.0 0.00 0.00 0.00 46 1011.0
20260901191439 88 302 2.0 8.0 0.00 0.00 0.00 46 1011.0
20260901191151 88 331 3.0 8.0 0.00 0.00 0.00 45 1011.0
20260901190425 88 344 2.0 7.0 0.00 0.00 0.00 46 1011.0
20260901185923 87 220 1.0 3.0 0.00 0.00 0.00 49 1011.1
20260901185418 87 213 1.0 3.0 0.00 0.00 0.00 49 1011.2
20260901185137 86 195 1.0 4.0 0.00 0.00 0.00 46 1011.3
20260901184414 86 197 1.0 4.0 0.00 0.00 0.00 46 1011.2
20260901183912 86 172 2.0 5.0 0.00 0.00 0.00 46 1011.2
20260901183422 85 227 1.0 7.0 0.00 0.00 0.00 46 1011.5
20260901183043 85 224 1.0 7.0 0.00 0.00 0.00 46 1011.5
20260901182315 85 328 1.0 6.0 0.00 0.00 0.00 49 1011.6
20260901181812 85 273 2.0 6.0 0.00 0.00 0.00 44 1011.7
20260901181256 85 275 2.0 6.0 0.00 0.00 0.00 46 1011.6
20260901180756 85 325 2.0 4.0 0.00 0.00 0.00 49 1011.8
20260901180252 85 0 1.0 6.0 0.00 0.00 0.00 50 1011.8
20260901175742 85 311 2.0 6.0 0.00 0.00 0.00 47 1011.8
20260901175244 85 246 2.0 6.0 0.00 0.00 0.00 53 1011.9
20260901174738 84 219 1.0 6.0 0.00 0.00 0.00 53 1012.0
20260901174231 84 182 1.0 3.0 0.00 0.00 0.00 54 1012.1
20260901173730 83 265 1.0 3.0 0.00 0.00 0.00 57 1012.1
20260901173456 83 306 1.0 4.0 0.00 0.00 0.00 58 1012.1
20260901172732 82 355 1.0 4.0 0.00 0.00 0.00 57 1012.1
20260901172214 82 254 1.0 3.0 0.00 0.00 0.00 55 1012.2
20260901171710 81 244 1.0 3.0 0.00 0.00 0.00 54 1012.2
20260901171212 81 253 1.0 3.0 0.00 0.00 0.00 53 1012.3
20260901170709 80 292 1.0 4.0 0.00 0.00 0.00 58 1012.3
20260901170210 80 9 1.0 4.0 0.00 0.00 0.00 62 1012.2
20260901165925 80 332 2.0 4.0 0.00 0.00 0.00 60 1012.2
20260901165201 80 46 2.0 5.0 0.00 0.00 0.00 60 1012.2
20260901164704 79 349 1.0 5.0 0.00 0.00 0.00 67 1012.2
20260901164201 79 5 2.0 5.0 0.00 0.00 0.00 63 1012.2
20260901163922 79 39 2.0 5.0 0.00 0.00 0.00 65 1012.2
20260901163421 79 347 2.0 5.0 0.00 0.00 0.00 68 1012.3
20260901162656 79 350 1.0 5.0 0.00 0.00 0.00 69 1012.2
20260901162155 78 11 1.0 4.0 0.00 0.00 0.00 70 1012.2
20260901161654 78 45 2.0 4.0 0.00 0.00 0.00 70 1012.2
20260901161422 78 15 2.0 4.0 0.00 0.00 0.00 70 1012.2
20260901160654 78 350 1.0 3.0 0.00 0.00 0.00 72 1012.5
20260901160153 78 344 1.0 3.0 0.00 0.00 0.00 71 1012.4
20260901155653 77 40 1.0 5.0 0.00 0.00 0.00 72 1012.4
20260901155153 77 338 1.0 5.0 0.00 0.00 0.00 74 1012.4
20260901154651 77 319 1.0 5.0 0.00 0.00 0.00 73 1012.4
20260901154149 76 316 2.0 6.0 0.00 0.00 0.00 75 1012.4
20260901153646 76 325 2.0 6.0 0.00 0.00 0.00 73 1012.4
20260901153147 76 340 2.0 6.0 0.00 0.00 0.00 74 1012.4
20260901152636 76 340 2.0 4.0 0.00 0.00 0.00 74 1012.4
20260901152133 75 331 1.0 4.0 0.00 0.00 0.00 74 1012.3
20260901151630 75 236 2.0 5.0 0.00 0.00 0.00 75 1012.3
20260901151116 75 269 2.0 5.0 0.00 0.00 0.00 75 1012.4
20260901150605 74 337 1.0 5.0 0.00 0.00 0.00 76 1012.5
20260901150100 74 227 1.0 5.0 0.00 0.00 0.00 77 1012.5
20260901145539 74 246 1.0 4.0 0.00 0.00 0.00 77 1012.5
20260901145037 74 236 1.0 4.0 0.00 0.00 0.00 77 1012.5
20260901144531 73 319 0.0 3.0 0.00 0.00 0.00 78 1012.4
20260901144026 73 327 1.0 6.0 0.00 0.00 0.00 78 1012.4
20260901143509 73 330 2.0 6.0 0.00 0.00 0.00 79 1012.5
20260901143004 72 330 1.0 5.0 0.00 0.00 0.00 81 1012.4
20260901142504 71 329 1.0 3.0 0.00 0.00 0.00 83 1012.4
20260901141953 71 314 1.0 3.0 0.00 0.00 0.00 84 1012.5
20260901141936 71 263 1.0 3.0 0.00 0.00 0.00 86 1012.4
20260901140954 70 281 0.0 4.0 0.00 0.00 0.00 87 1012.4
20260901140450 70 281 1.0 7.0 0.00 0.00 0.00 87 1012.4
20260901135947 69 261 1.0 7.0 0.00 0.00 0.00 88 1012.5
20260901135441 69 255 1.0 5.0 0.00 0.00 0.00 89 1012.5
20260901134946 68 226 2.0 6.0 0.00 0.00 0.00 91 1012.6
20260901134436 68 197 2.0 6.0 0.00 0.00 0.00 93 1012.6
20260901133936 67 219 2.0 6.0 0.00 0.00 0.00 95 1012.6
20260901133432 67 246 2.0 5.0 0.00 0.00 0.00 95 1012.5
20260901132922 66 231 1.0 4.0 0.00 0.00 0.00 95 1012.4
20260901132422 66 221 1.0 4.0 0.00 0.00 0.00 95 1012.4
20260901131908 65 218 1.0 3.0 0.00 0.00 0.00 96 1012.2
20260901131409 65 217 1.0 3.0 0.00 0.00 0.00 96 1012.2
20260901130859 64 182 0.0 3.0 0.00 0.00 0.00 96 1012.2
20260901130357 63 182 0.0 3.0 0.00 0.00 0.00 95 1012.2
20260901125840 63 182 0.0 3.0 0.00 0.00 0.00 95 1012.2
20260901125338 63 182 0.0 2.0 0.00 0.00 0.00 95 1012.1
20260901125103 62 182 0.0 2.0 0.00 0.00 0.00 95 1012.2
20260901124327 62 182 0.0 2.0 0.00 0.00 0.00 95 1012.1
20260901124048 62 182 1.0 3.0 0.00 0.00 0.00 94 1012.1
20260901123311 62 182 1.0 3.0 0.00 0.00 0.00 94 1012.0
20260901122811 62 182 1.0 3.0 0.00 0.00 0.00 94 1012.0
20260901122308 62 182 0.0 3.0 0.00 0.00 0.00 94 1012.0
20260901121807 61 290 0.0 0.0 0.00 0.00 0.00 94 1012.0
20260901121245 61 290 0.0 0.0 0.00 0.00 0.00 94 1012.0
20260901120823 61 290 0.0 0.0 0.00 0.00 0.00 94 1012.0
20260901115728 62 290 0.0 0.0 0.00 0.00 0.00 94 1011.9
20260901115230 62 290 0.0 0.0 0.00 0.00 0.00 94 1011.7
20260901114917 62 290 0.0 0.0 0.00 0.00 0.00 94 1011.7
20260901114417 62 290 0.0 0.0 0.00 0.00 0.00 94 1011.7
20260901113638 62 290 0.0 0.0 0.00 0.00 0.00 94 1011.5
20260901113358 62 290 0.0 0.0 0.00 0.00 0.00 94 1011.6
20260901112603 62 290 0.0 0.0 0.00 0.00 0.00 94 1011.5
20260901112318 62 290 0.0 0.0 0.00 0.00 0.00 94 1011.5
20260901111533 62 290 0.0 0.0 0.00 0.00 0.00 94 1011.5
20260901111256 62 290 0.0 0.0 0.00 0.00 0.00 94 1011.5
20260901110531 62 290 0.0 0.0 0.00 0.00 0.00 94 1011.3
20260901110022 62 290 0.0 0.0 0.00 0.00 0.00 94 1011.2
20260901105515 63 290 0.0 0.0 0.00 0.00 0.00 94 1011.3
20260901105017 63 290 0.0 0.0 0.00 0.00 0.00 94 1011.3
20260901104508 63 290 0.0 0.0 0.00 0.00 0.00 94 1011.3
20260901104012 63 290 0.0 1.0 0.00 0.00 0.00 94 1011.2
20260901103501 63 290 0.0 1.0 0.00 0.00 0.00 94 1011.1
20260901102950 63 290 0.0 0.0 0.00 0.00 0.00 94 1011.1
20260901102448 63 290 0.0 1.0 0.00 0.00 0.00 94 1011.2
20260901101938 63 290 0.0 2.0 0.00 0.00 0.00 94 1011.2
20260901101432 63 290 0.0 2.0 0.00 0.00 0.00 94 1011.1
20260901101154 63 290 0.0 2.0 0.00 0.00 0.00 94 1010.9
20260901100638 63 290 0.0 2.0 0.00 0.00 0.00 94 1010.8
20260901100409 63 290 0.0 1.0 0.00 0.00 0.00 93 1010.9
20260901095411 63 290 0.0 1.0 0.00 0.00 0.00 93 1010.9
20260901094846 63 290 0.0 1.0 0.00 0.00 0.00 93 1010.8
20260901094336 63 290 0.0 1.0 0.00 0.00 0.00 93 1010.7
20260901093819 63 290 0.0 1.0 0.00 0.00 0.00 93 1010.5
20260901093801 63 290 0.0 1.0 0.00 0.00 0.00 93 1010.6
20260901092813 63 290 0.0 1.0 0.00 0.00 0.00 93 1010.6
20260901092306 63 290 0.0 0.0 0.00 0.00 0.00 93 1010.6
20260901091801 63 290 0.0 0.0 0.00 0.00 0.00 93 1010.6
20260901091305 63 290 0.0 0.0 0.00 0.00 0.00 93 1010.6
20260901091015 63 290 0.0 0.0 0.00 0.00 0.00 93 1010.7
20260901090517 63 290 0.0 1.0 0.00 0.00 0.00 93 1010.7
20260901085733 63 290 0.0 1.0 0.00 0.00 0.00 93 1010.6
20260901085219 63 290 0.0 1.0 0.00 0.00 0.00 93 1010.7
20260901084709 63 290 0.0 1.0 0.00 0.00 0.00 93 1010.7
20260901084209 63 290 0.0 1.0 0.00 0.00 0.00 93 1010.7
20260901083702 63 290 0.0 1.0 0.00 0.00 0.00 92 1010.6
20260901083159 63 327 0.0 1.0 0.00 0.00 0.00 92 1010.6
20260901083148 63 327 0.0 1.0 0.00 0.00 0.00 92 1010.5
20260901082146 63 327 0.0 0.0 0.00 0.00 0.00 92 1010.5
20260901081639 64 327 0.0 0.0 0.00 0.00 0.00 91 1010.6
20260901081139 64 327 0.0 0.0 0.00 0.00 0.00 91 1010.6
20260901080635 64 327 0.0 0.0 0.00 0.00 0.00 91 1010.5
20260901080133 64 327 0.0 0.0 0.00 0.00 0.00 91 1010.6
20260901075607 64 327 0.0 0.0 0.00 0.00 0.00 91 1010.7
20260901075101 64 327 0.0 0.0 0.00 0.00 0.00 91 1010.7
20260901074546 64 327 0.0 0.0 0.00 0.00 0.00 91 1010.7
20260901074031 64 327 0.0 0.0 0.00 0.00 0.00 91 1010.7
20260901073529 65 327 0.0 0.0 0.00 0.00 0.00 91 1010.9
20260901073244 65 327 0.0 0.0 0.00 0.00 0.00 91 1010.9
20260901072518 65 327 0.0 0.0 0.00 0.00 0.00 91 1010.9
20260901072233 65 327 0.0 0.0 0.00 0.00 0.00 91 1010.9
20260901072000 65 327 0.0 0.0 0.00 0.00 0.00 90 1011.1
20260901070947 65 327 0.0 0.0 0.00 0.00 0.00 90 1011.1
20260901070436 65 327 0.0 0.0 0.00 0.00 0.00 90 1011.2
20260901065937 66 327 0.0 0.0 0.00 0.00 0.00 90 1011.1
20260901065642 66 327 0.0 0.0 0.00 0.00 0.00 90 1011.2
20260901064919 66 327 0.0 0.0 0.00 0.00 0.00 90 1011.1
20260901064421 66 327 0.0 0.0 0.00 0.00 0.00 90 1011.2
20260901064401 66 327 0.0 0.0 0.00 0.00 0.00 90 1011.3
20260901063410 66 327 0.0 0.0 0.00 0.00 0.00 90 1011.3
20260901062905 66 327 0.0 0.0 0.00 0.00 0.00 89 1011.3
20260901062627 67 327 0.0 0.0 0.00 0.00 0.00 89 1011.1
20260901061840 67 327 0.0 0.0 0.00 0.00 0.00 90 1011.1
20260901061556 67 327 0.0 0.0 0.00 0.00 0.00 90 1011.1
20260901060830 67 327 0.0 0.0 0.00 0.00 0.00 89 1011.1
20260901060543 67 327 0.0 0.0 0.00 0.00 0.00 89 1011.1
20260901055803 67 327 0.0 0.0 0.00 0.00 0.00 89 1011.1
20260901055257 67 327 0.0 0.0 0.00 0.00 0.00 89 1011.1
20260901055238 67 327 0.0 0.0 0.00 0.00 0.00 89 1011.1
20260901054240 67 327 0.0 0.0 0.00 0.00 0.00 89 1011.1
20260901053716 67 327 0.0 0.0 0.00 0.00 0.00 89 1011.0
20260901053153 68 327 0.0 0.0 0.00 0.00 0.00 89 1011.0
20260901052648 68 327 0.0 0.0 0.00 0.00 0.00 89 1010.9
20260901052144 68 327 0.0 0.0 0.00 0.00 0.00 88 1011.0
20260901051904 68 327 0.0 0.0 0.00 0.00 0.00 88 1010.9
20260901051127 68 327 0.0 0.0 0.00 0.00 0.00 88 1010.8
20260901050624 68 327 0.0 0.0 0.00 0.00 0.00 88 1010.9
20260901050333 68 327 0.0 0.0 0.00 0.00 0.00 87 1010.8
20260901045610 69 327 0.0 0.0 0.00 0.00 0.00 87 1010.8
20260901045112 69 327 0.0 0.0 0.00 0.00 0.00 86 1010.8
20260901044557 69 327 0.0 0.0 0.00 0.00 0.00 86 1010.7
20260901044051 69 327 0.0 0.0 0.00 0.00 0.00 85 1010.7
20260901043552 69 327 0.0 0.0 0.00 0.00 0.00 85 1010.6
20260901043049 70 327 0.0 0.0 0.00 0.00 0.00 85 1010.5
20260901042541 70 327 0.0 0.0 0.00 0.00 0.00 85 1010.5
20260901042027 70 327 0.0 0.0 0.00 0.00 0.00 84 1010.5
20260901041524 70 327 0.0 0.0 0.00 0.00 0.00 84 1010.4
20260901041016 71 327 0.0 0.0 0.00 0.00 0.00 84 1010.5
20260901040501 71 327 0.0 0.0 0.00 0.00 0.00 84 1010.5
20260901035954 71 327 0.0 0.0 0.00 0.00 0.00 84 1010.5
20260901035445 71 327 0.0 0.0 0.00 0.00 0.00 83 1010.5
20260901034927 71 327 0.0 0.0 0.00 0.00 0.00 83 1010.5
20260901034913 71 327 0.0 0.0 0.00 0.00 0.00 83 1010.6
20260901034150 72 327 0.0 0.0 0.00 0.00 0.00 83 1010.6
20260901033415 72 327 0.0 0.0 0.00 0.00 0.00 82 1010.6
20260901032913 72 327 0.0 0.0 0.00 0.00 0.00 82 1010.5
20260901032413 72 327 0.0 0.0 0.00 0.00 0.00 82 1010.5
20260901031906 72 327 0.0 0.0 0.00 0.00 0.00 82 1010.4
20260901031343 72 327 0.0 0.0 0.00 0.00 0.00 81 1010.4
20260901030840 73 327 0.0 0.0 0.00 0.00 0.00 81 1010.4
20260901030542 73 327 0.0 0.0 0.00 0.00 0.00 81 1010.3
20260901025826 73 327 0.0 1.0 0.00 0.00 0.00 82 1010.3
20260901025542 73 327 0.0 1.0 0.00 0.00 0.00 82 1010.3
20260901024812 73 327 0.0 1.0 0.00 0.00 0.00 80 1010.3
20260901024309 73 327 0.0 1.0 0.00 0.00 0.00 80 1010.3
20260901023811 74 327 0.0 1.0 0.00 0.00 0.00 79 1010.2
20260901023306 74 327 0.0 1.0 0.00 0.00 0.00 80 1010.1
20260901022801 74 327 0.0 1.0 0.00 0.00 0.00 77 1010.0
20260901022249 74 326 0.0 1.0 0.00 0.00 0.00 77 1010.1
20260901022005 74 327 0.0 1.0 0.00 0.00 0.00 77 1010.1
20260901021224 75 327 0.0 1.0 0.00 0.00 0.00 76 1010.0
20260901020939 75 327 0.0 1.0 0.00 0.00 0.00 76 1010.1
20260901020221 75 327 0.0 0.0 0.00 0.00 0.00 76 1010.0
20260901015654 75 327 0.0 0.0 0.00 0.00 0.00 76 1009.9
20260901015139 76 327 0.0 1.0 0.00 0.00 0.00 76 1009.9
20260901014632 76 327 0.0 1.0 0.00 0.00 0.00 74 1009.9
20260901014105 76 327 0.0 1.0 0.00 0.00 0.00 76 1009.7
20260901013558 77 327 0.0 1.0 0.00 0.00 0.00 74 1009.7
20260901013050 77 327 0.0 0.0 0.00 0.00 0.00 74 1009.6
20260901012550 77 327 0.0 0.0 0.00 0.00 0.00 72 1009.6
20260901012249 78 327 0.0 0.0 0.00 0.00 0.00 71 1009.6
20260901011524 78 327 0.0 0.0 0.00 0.00 0.00 70 1009.6
20260901011235 79 327 0.0 0.0 0.00 0.00 0.00 68 1009.5
20260901010512 79 327 0.0 0.0 0.00 0.00 0.00 68 1009.5
20260901010012 80 327 0.0 0.0 0.00 0.00 0.00 67 1009.5
20260901005454 80 327 0.0 1.0 0.00 0.00 0.00 68 1009.5
20260901004951 80 327 0.0 1.0 0.00 0.00 0.00 70 1009.5
20260901004446 81 327 0.0 1.0 0.00 0.00 0.00 67 1009.4
20260901004152 81 327 0.0 1.0 0.00 0.00 0.00 66 1009.4
20260901003432 82 327 0.0 1.0 0.00 0.00 0.00 66 1009.4
20260901003151 82 327 0.0 1.0 0.00 0.00 0.00 64 1009.3
20260901002422 83 327 0.0 2.0 0.00 0.00 0.00 63 1009.3
20260901001916 83 315 0.0 2.0 0.00 0.00 0.00 66 1009.3
20260901001410 83 314 0.0 2.0 0.00 0.00 0.00 60 1009.3
20260901000854 84 314 0.0 2.0 0.00 0.00 0.00 60 1009.3
20260901000343 84 315 0.0 0.0 0.00 0.00 0.00 59 1009.3
20260831235835 84 315 0.0 0.0 0.00 0.00 0.00 57 1009.2
20260831235555 85 315 0.0 1.0 0.00 0.00 0.00 57 1009.3
20260831234822 85 315 0.0 2.0 0.00 0.00 0.00 60 1009.2
20260831234538 85 315 1.0 2.0 0.00 0.00 0.00 58 1009.2
20260831233812 86 315 1.0 2.0 0.00 0.00 0.00 59 1009.2
20260831233310 86 313 1.0 3.0 0.00 0.00 0.00 57 1009.1
20260831232809 86 325 1.0 3.0 0.00 0.00 0.00 57 1009.3
20260831232310 87 325 1.0 2.0 0.00 0.00 0.00 58 1009.3
20260831231809 87 326 1.0 2.0 0.00 0.00 0.00 57 1009.2
20260831231307 87 323 1.0 3.0 0.00 0.00 0.00 54 1009.3